[[{"header":{"parameterUnit":"m.s-1","parameterCategory":1,"la1":30.2991,"la2":30.254,"lo1":-89.0895,"lo2":-89.0444,"dy":0.0017,"dx":0.0017,"nx":28,"ny":28,"refTime":"2025-06-21T09:00:00:Z","depth":0,"parameterNumber":2,"parameterNumberName":"U-component_of_WINDS"},"data":[0,0,0,0,0,0,0,0,0,0,0,0,0,0,0,0,0,0,0,0,0,0,0,0,0,0,0,0,0,0,0,0,0,0,0,0,0,0,0,0,0,0,0,0,0,0,0,0,0,0,0,0,0,0,0,0,0,0,0.6955,0.6955,0,0.6959,0.6959,0.6959,0.6949,0.6948,0.6948,0.6948,0.695,0.6951,0.6951,0,0,0,0,0,0,0,0,0,0,0,0,0,0.6936,0.6937,0.6955,0.6955,0.6955,0.6959,0.6959,0.6959,0.6949,0.6948,0.6948,0.6948,0.695,0.6951,0.6951,0,0,0,0,0,0,0,0,0,0,0,0,0,0.6943,0.6937,0.6955,0.6951,0.695,0.6959,0.6959,0.6959,0.6949,0.6948,0.6948,0.6947,0.695,0.6951,0.6951,0.6964,0,0,0.6953,0.6953,0,0,0,0,0,0,0,0,0.6942,0.6943,0.6951,0.6951,0.6951,0.6953,0.6953,0.6961,0.6949,0.6949,0.6948,0.6947,0.6952,0.6952,0.6954,0.6964,0.6964,0.6953,0.6953,0.6954,0.6954,0,0,0,0,0,0,0,0.6942,0.6943,0.6957,0.6951,0.6951,0.6947,0.6948,0.6955,0.6953,0.6949,0.6949,0.6949,0.6951,0.6953,0.6954,0.6964,0.6953,0.6953,0.6954,0.6954,0.6983,0.6983,0,0,0,0,0,0,0.6942,0.6943,0.6956,0.6957,0.6945,0.6948,0.6949,0.6953,0.6953,0.6953,0.695,0.6949,0.6952,0.6953,0.6954,0.6967,0.6954,0.6954,0.6954,0.6983,0.6983,0.6984,0,0,0,0,0,0,0.6942,0.6944,0.6956,0.695,0.6951,0.6949,0.6954,0.6953,0.6955,0.6953,0.6953,0.6952,0.6952,0.6953,0.6961,0.6967,0.6954,0.6955,0.6982,0.6983,0.6983,0.6995,0,0,0,0,0,0,0.6942,0.6944,0.6949,0.695,0.6951,0.6965,0.6954,0.6953,0.6956,0.6955,0.6955,0.6955,0.6952,0.696,0.6962,0.6968,0.6955,0.6981,0.6982,0.6983,0.6994,0.6996,0.6998,0,0,0,0,0,0.6941,0.6953,0.695,0.6951,0.6958,0.6965,0.6966,0.6962,0.6957,0.6961,0.696,0.6955,0.6966,0.6961,0.6963,0.6969,0.6981,0.6982,0.6983,0.6993,0.6996,0.6998,0,0,0,0,0,0,0.6953,0.6953,0.6949,0.6962,0.6963,0.6963,0.697,0.6965,0.6968,0.6967,0.6962,0.6962,0.6971,0.6971,0.6965,0.698,0.6973,0.6974,0.698,0.6982,0.6984,0.6983,0.6956,0,0,0,0,0,0.6957,0.6963,0.6962,0.6973,0.6974,0.6972,0.6974,0.6971,0.6973,0.6973,0.6973,0.6974,0.6977,0.698,0.6983,0.6994,0.6993,0.6999,0.7001,0.7002,0.7003,0.7007,0.7009,0.6987,0.6987,0.6987,0,0,0.6966,0.6966,0.697,0.6976,0.6977,0.6982,0.6972,0.6979,0.6982,0.6974,0.6982,0.6981,0.6982,0.6991,0.6995,0.6991,0.7009,0.7003,0.7005,0.7005,0.7008,0.701,0.7012,0.6988,0.6987,0.6987,0,0,0.6984,0.6985,0.6994,0.6995,0.6996,0.6994,0.6996,0.6996,0.6995,0.7002,0.6996,0.7,0.7007,0.7007,0.7008,0.7023,0.7018,0.7025,0.7034,0.7038,0.7039,0.7041,0.7045,0.7047,0.7026,0.7026,0.7026,0,0.6994,0.7002,0.6999,0.7005,0.7006,0.6999,0.7007,0.7008,0.701,0.7011,0.7007,0.7014,0.7014,0.7022,0.7026,0.7027,0.7028,0.7024,0.704,0.7041,0.7042,0.7046,0.7048,0.7026,0.7026,0.7026,0.7026,0,0.7014,0.702,0.7026,0.7028,0.703,0.7037,0.7034,0.7036,0.7033,0.7031,0.7037,0.7037,0.7039,0.7041,0.7038,0.7048,0.7045,0.7041,0.7033,0.7045,0.7049,0.705,0.7027,0.7027,0.7027,0.7027,0,0,0.704,0.7039,0.7041,0.7041,0.7041,0.7045,0.7051,0.7053,0.7055,0.7056,0.706,0.7065,0.706,0.7061,0.7058,0.7061,0.7072,0.7056,0.7055,0.7057,0.7081,0.7084,0.7086,0.7068,0.7069,0.7069,0.7081,0,0.7057,0.7067,0.7063,0.7073,0.7077,0.707,0.7074,0.7074,0.7072,0.7075,0.7072,0.7075,0.7069,0.7069,0.7073,0.707,0.7076,0.7069,0.7071,0.7071,0.707,0.7088,0.7092,0.7103,0.7082,0.7082,0.7083,0,0.7078,0.7079,0.709,0.7087,0.7089,0.7094,0.7094,0.7097,0.7096,0.7094,0.7095,0.709,0.7094,0.7087,0.7091,0.7087,0.7087,0.7085,0.7086,0.7085,0.7077,0.7087,0.7107,0.7108,0.7085,0.7085,0.7085,0,0.7094,0.7099,0.7105,0.7106,0.7104,0.7106,0.7106,0.7104,0.7105,0.7106,0.7106,0.7107,0.7107,0.7108,0.7103,0.7098,0.7108,0.71,0.7105,0.7105,0.7107,0.7107,0.7126,0.7109,0.7109,0.7109,0.7109,0,0.7112,0.7119,0.7112,0.7116,0.7122,0.7117,0.7123,0.7121,0.712,0.7123,0.7116,0.7119,0.7112,0.7114,0.711,0.7114,0.7114,0.7112,0.7111,0.7112,0.7112,0.7112,0.711,0.7109,0.7109,0.7109,0.7109,0,0.7131,0.7128,0.7134,0.7131,0.713,0.7135,0.7132,0.7135,0.7132,0.7135,0.7135,0.713,0.7131,0.7127,0.7127,0.7124,0.713,0.7128,0.713,0.7129,0.7134,0.7133,0.7153,0.7154,0.7137,0.7137,0.7137,0,0.7143,0.7147,0.7145,0.7146,0.7145,0.7148,0.7148,0.7143,0.7143,0.7142,0.7144,0.7145,0.7145,0.7147,0.7143,0.7143,0.714,0.7147,0.714,0.7141,0.7139,0.7138,0.7138,0.7148,0.7149,0.7149,0.7149,0,0.7163,0.7161,0.7162,0.7162,0.7163,0.7163,0.7163,0.7164,0.7158,0.7159,0.716,0.716,0.716,0.716,0.7159,0.7157,0.7151,0.7151,0.7152,0.7153,0.7154,0.7152,0.7133,0.7151,0.715,0.715,0.715,0.715,0.7178,0.7181,0.7179,0.718,0.7179,0.7178,0.718,0.7177,0.7178,0.7178,0.7174,0.7175,0.7173,0.7171,0.7169,0.7169,0.7166,0.7168,0.7168,0.7168,0.7168,0.7154,0.7169,0.7169,0.7169,0.7169,0.7169,0,0.7197,0.7195,0.7196,0.7195,0.7196,0.7191,0.7189,0.719,0.7191,0.7189,0.7189,0.7189,0.7189,0.7185,0.7184,0.7185,0.7182,0.7185,0.7184,0.7183,0.7172,0.7171,0.7187,0.7187,0.7187,0.7187,0.7187,0.7187,0.7206,0.721,0.7207,0.721,0.7208,0.721,0.7209,0.7208,0.7206,0.7207,0.7206,0.7204,0.72,0.7199,0.7198,0.7197,0.7196,0.7199,0.7197,0.7186,0.7184,0.7183,0.7182,0.7199,0.7199,0.7208,0.7208,0.7208]},{"header":{"parameterUnit":"m.s-1","parameterCategory":1,"la1":30.2991,"la2":30.254,"lo1":-89.0895,"lo2":-89.0444,"dy":0.0017,"dx":0.0017,"nx":28,"ny":28,"refTime":"2025-06-21T09:00:00:Z","depth":0,"parameterNumber":3,"parameterNumberName":"V-component_of_WINDS"},"data":[0,0,0,0,0,0,0,0,0,0,0,0,0,0,0,0,0,0,0,0,0,0,0,0,0,0,0,0,0,0,0,0,0,0,0,0,0,0,0,0,0,0,0,0,0,0,0,0,0,0,0,0,0,0,0,0,0,0,1.8955,1.8955,0,1.8945,1.8945,1.8945,1.8892,1.889,1.8889,1.8888,1.8876,1.8877,1.8878,0,0,0,0,0,0,0,0,0,0,0,0,0,1.8924,1.8925,1.8955,1.8955,1.8954,1.8945,1.8945,1.8945,1.8892,1.889,1.8889,1.8887,1.8876,1.8877,1.8878,0,0,0,0,0,0,0,0,0,0,0,0,0,1.8928,1.8925,1.8955,1.8927,1.8924,1.8945,1.8945,1.8945,1.8892,1.889,1.8888,1.8887,1.8876,1.8877,1.8878,1.8924,0,0,1.8882,1.8883,0,0,0,0,0,0,0,0,1.8928,1.8929,1.8931,1.8929,1.8926,1.8918,1.893,1.8938,1.8893,1.8904,1.8888,1.8886,1.8892,1.8891,1.8894,1.8924,1.8923,1.8882,1.8883,1.8884,1.8884,0,0,0,0,0,0,0,1.8928,1.8929,1.8951,1.8931,1.8928,1.8914,1.8912,1.8931,1.8909,1.8903,1.8899,1.8899,1.889,1.8893,1.8893,1.8923,1.8882,1.8884,1.8884,1.8885,1.8986,1.8988,0,0,0,0,0,0,1.8932,1.893,1.8951,1.895,1.8922,1.8916,1.8914,1.8922,1.8908,1.8904,1.8901,1.8897,1.8891,1.8892,1.8892,1.8942,1.8884,1.8885,1.8886,1.8984,1.8986,1.8989,0,0,0,0,0,0,1.8931,1.8934,1.8951,1.8939,1.894,1.8919,1.8928,1.8923,1.8926,1.8906,1.8902,1.8908,1.889,1.8891,1.8916,1.8941,1.8886,1.8887,1.8982,1.8985,1.8988,1.9045,0,0,0,0,0,0,1.8931,1.8934,1.8953,1.894,1.8941,1.8977,1.893,1.8924,1.8928,1.8923,1.8912,1.8908,1.8888,1.8914,1.8917,1.8942,1.8888,1.8979,1.8983,1.8987,1.904,1.9049,1.9057,0,0,0,0,0,1.893,1.897,1.8954,1.8957,1.8964,1.8978,1.8979,1.8955,1.8931,1.8948,1.8935,1.8909,1.8939,1.8917,1.892,1.8946,1.8978,1.8982,1.8986,1.9037,1.9047,1.9056,0,0,0,0,0,0,1.8986,1.8968,1.895,1.8987,1.8985,1.8969,1.899,1.8968,1.8972,1.8967,1.8937,1.8935,1.8964,1.8958,1.8935,1.8988,1.8953,1.8958,1.8991,1.9001,1.9009,1.9009,1.8889,0,0,0,0,0,1.9003,1.9018,1.9,1.9034,1.9034,1.9013,1.9018,1.9,1.8996,1.8995,1.8984,1.898,1.8988,1.8994,1.9001,1.904,1.9035,1.9058,1.9066,1.9073,1.9077,1.9094,1.9103,1.9003,1.9003,1.9002,0,0,1.9038,1.903,1.9041,1.9045,1.9041,1.9055,1.9012,1.903,1.9039,1.8997,1.902,1.9012,1.9005,1.9037,1.905,1.9032,1.9104,1.9079,1.9084,1.9085,1.9099,1.9109,1.9117,1.9006,1.9005,1.9005,0,0,1.9108,1.9104,1.9131,1.9127,1.9121,1.9106,1.9113,1.91,1.9093,1.9115,1.9083,1.9094,1.911,1.9105,1.9105,1.9171,1.9145,1.9174,1.9216,1.9232,1.924,1.9247,1.9267,1.9275,1.9178,1.9179,1.9179,0,1.9152,1.9172,1.9147,1.9166,1.9167,1.913,1.9156,1.9153,1.915,1.9151,1.9132,1.9148,1.9142,1.917,1.9185,1.9188,1.9192,1.9174,1.9241,1.9247,1.9253,1.9272,1.9281,1.9182,1.9181,1.9181,1.9181,0,1.9225,1.9239,1.9261,1.9258,1.9263,1.9285,1.9261,1.9269,1.925,1.9236,1.9258,1.9248,1.9251,1.9257,1.9239,1.9281,1.927,1.9246,1.9211,1.9267,1.9284,1.9291,1.9187,1.9185,1.9184,1.9184,0,0,1.9331,1.9312,1.932,1.9317,1.9307,1.9317,1.9336,1.9338,1.9344,1.9342,1.9356,1.9368,1.9345,1.9345,1.9327,1.9341,1.939,1.9315,1.9314,1.9327,1.9432,1.9448,1.9458,1.9374,1.9375,1.9376,1.9432,0,1.9396,1.9428,1.9404,1.944,1.9451,1.9415,1.9431,1.9425,1.9413,1.9419,1.9405,1.9413,1.9384,1.9383,1.9396,1.9381,1.941,1.9377,1.9384,1.9384,1.9384,1.9467,1.9485,1.9538,1.9439,1.944,1.9441,0,1.9476,1.9477,1.9513,1.9497,1.9501,1.9516,1.9515,1.9523,1.9514,1.9504,1.9503,1.9479,1.9494,1.9461,1.948,1.9458,1.9459,1.9452,1.9454,1.9452,1.9415,1.9465,1.9555,1.9562,1.9452,1.9451,1.945,0,1.9546,1.9557,1.9579,1.9577,1.956,1.9571,1.9565,1.9555,1.9557,1.9555,1.9555,1.9556,1.9556,1.9556,1.9533,1.9511,1.9554,1.9519,1.9543,1.9544,1.9553,1.9552,1.9642,1.9558,1.9558,1.9557,1.9557,0,1.962,1.9643,1.9609,1.9623,1.9646,1.9619,1.9642,1.9632,1.9623,1.9632,1.9601,1.961,1.958,1.9585,1.9567,1.9583,1.9584,1.9575,1.9569,1.9576,1.9577,1.9575,1.957,1.956,1.9559,1.9559,1.9558,0,1.9702,1.9681,1.9702,1.9684,1.9679,1.9697,1.9681,1.9691,1.9676,1.9688,1.9689,1.9665,1.9669,1.9646,1.9647,1.9634,1.9659,1.9648,1.9662,1.9657,1.9682,1.9679,1.9772,1.9781,1.9694,1.9694,1.9695,0,1.9749,1.9766,1.9748,1.9752,1.9747,1.9754,1.9755,1.9728,1.973,1.9721,1.9732,1.9734,1.9734,1.9742,1.9724,1.9723,1.971,1.9743,1.971,1.9716,1.9708,1.9706,1.9706,1.9749,1.975,1.9751,1.9752,0,1.9835,1.9823,1.9826,1.9825,1.9827,1.9825,1.9821,1.9826,1.9796,1.98,1.9803,1.9803,1.9803,1.9804,1.9799,1.979,1.9765,1.9763,1.9768,1.9774,1.978,1.9774,1.9678,1.976,1.9759,1.9759,1.9758,1.9758,1.9899,1.991,1.9899,1.9903,1.9897,1.9893,1.9901,1.9886,1.9889,1.9886,1.987,1.9876,1.9864,1.9855,1.9849,1.9852,1.9836,1.9845,1.9846,1.9848,1.9851,1.9781,1.9852,1.9851,1.9851,1.9851,1.9851,0,1.998,1.9971,1.9974,1.9969,1.9971,1.9948,1.9941,1.9944,1.995,1.9942,1.9942,1.9944,1.9945,1.9926,1.9923,1.9929,1.9917,1.9929,1.9927,1.9925,1.9867,1.9862,1.9939,1.9939,1.9938,1.9938,1.9938,1.9938,2.0022,2.004,2.0026,2.0039,2.0029,2.0035,2.0033,2.0028,2.0021,2.0025,2.0025,2.0013,1.9999,1.9995,1.9994,1.9988,1.9987,2.0002,1.9993,1.9938,1.993,1.9921,1.9916,2.0003,2.0003,2.005,2.005,2.0051]}]]